Location: *
(50.3194°N, 7.1067°E)
Time: 14:43:17
(UTC+00:00)

Cosmos 2056 Rocket - Pass Details

Date: 22 September 2019
Orbit: 742 x 800 km, 74.0° (Epoch: 20 October)

Event Time Altitude Azimuth Distance (km) Brightness Sun altitude
Rises 19:06:43 0° 202° (SSW) 3,297 6.8 -15.9°
Reaches altitude 10° 19:09:07 10° 203° (SSW) 2,370 6.1 -16.2°
Maximum altitude 19:14:32 88° 290° (WNW) 805 3.6 -17.0°
Drops below altitude 10° 19:19:57 10° 24° (NNE) 2,368 6.0 -17.8°
Sets 19:22:21 0° 25° (NNE) 3,294 6.8 -18.2°
